Regional Weather Roundup
Issued by NWS Sterling, VA

Home | Current Version | Previous Version | Text Only | Print | Product List | Glossary Off
Versions: 1 2 3 4 5 6 7 8 9 10 11 12 13 14 15 16 17 18 19 20 21 22 23 24 25 26 27 28 29 30 31 32 33 34 35 36 37 38 39 40 41 42 43 44 45 46 47 48 49 50

000
ASUS41 KLWX 260510
RWRLWX

REGIONAL WEATHER ROUNDUP
NATIONAL WEATHER SERVICE BALTIMORE MD/WASHINGTON DC
1200 AM EST MON JAN 26 2015

Note: "FAIR" indicates few or no clouds below 12,000 feet
with no significant weather and/or obstructions to visibility.
 TC=TEMPERATURE CELSIUS

 * =Non NWS site. Station does not report precipitation (e.g. rain,
    snow, etc.), thunder, or fog.

DCZ001-MDZ009-015-VAZ040>042-051-053>054-260600-
WASHINGTON METRO

CITY           SKY/WX    TMP DP  RH WIND       PRES   REMARKS
WASHINGTON NAT CLOUDY    46  31  55 SE3       29.86S
DULLES         CLOUDY    43  32  65 SE6       29.83S
ANDREWS AFB    CLOUDY    42  32  66 SE6       29.84F
FT BELVOIR     CLOUDY    40  34  78 E3        29.85S
QUANTICO       CLOUDY    42  33  70 CALM      29.85F
COLLEGE PARK*  CLOUDY    43  32  65 CALM      29.85F
LEESBURG*      CLOUDY    39  37  93 CALM      29.84F
MANASSAS*      CLOUDY    43  36  75 SE6       29.83S
GAITHERSBURG*  CLOUDY    39  30  70 E6        29.87S

$$

MDZ006>007-011-014-260600-
BALTIMORE METRO

CITY           SKY/WX    TMP DP  RH WIND       PRES   REMARKS
BWI AIRPORT    CLOUDY    41  33  73 E12       29.86S
MD SCIENCE CTR   N/A     41  32  70 MISG      29.88R
MARTIN STATE   CLOUDY    41  36  81 NE6       29.90S
ANNAPOLIS      CLOUDY    41  32  70 E7        29.87S
FORT MEADE*    CLOUDY    41  32  70 E7        29.88F

$$

MDZ012-015-019>023-260600-
MARYLAND EASTERN SHORE

CITY           SKY/WX    TMP DP  RH WIND       PRES   REMARKS
OCEAN CITY     CLOUDY    40  37  89 SW3       29.91F
SALISBURY      CLOUDY    42  34  73 SE5       29.89F
BAY BRIDGE AP*   N/A     41  32  70 E6        29.88F
CAMBRIDGE*     CLOUDY    43  34  70 SE9       29.88S
EASTON*        CLOUDY    43  34  71 S7        29.91F

$$

MDZ017>025-260600-
SOUTHERN MARYLAND

CITY           SKY/WX    TMP DP  RH WIND       PRES   REMARKS
PATUXENT RIVER CLOUDY    41  34  76 SE8       29.86S
ST INIGOES     CLOUDY    43  32  65 SE8       29.85F
LEONARDTOWN*   CLOUDY    41  32  70 SE8       29.86F

$$

MDZ003>005-260600-
NORTH CENTRAL MARYLAND

CITY           SKY/WX    TMP DP  RH WIND       PRES   REMARKS
FREDERICK*     CLOUDY    37  34  87 N8        29.88S FOG
HAGERSTOWN APT MIX PCPN  36  32  85 NE10      29.83S WCI  28
WESTMINSTER*   CLOUDY    36  34  93 E6        29.85R FOG

$$

MDZ501>502-260600-
WESTERN MARYLAND

CITY           SKY/WX    TMP DP  RH WIND       PRES   REMARKS
OAKLAND*       FOG       32 N/A N/A SE6       29.70S VSB 1/4
CUMBERLAND*    CLOUDY    37  36  93 N3        29.85S

$$

VAZ025>031-260600-
SHENANDOAH VALLEY

CITY           SKY/WX    TMP DP  RH WIND       PRES   REMARKS
WINCHESTER*    CLOUDY    37  34  87 CALM      29.81R
FRONT ROYAL*   CLOUDY    36  32  87 NW3       29.79S
LURAY*         CLOUDY    36  36 100 CALM      29.79S
NEW MARKET*    CLOUDY    32  31  97 CALM      29.78F
STAUNTON*      CLOUDY    36  32  87 CALM      29.79S
WAYNESBORO*    CLOUDY    42  32  67 SE5       29.76S

$$

WVZ021-048>050-054>055-260600-
EASTERN WEST VIRGINIA PANHANDLE

CITY           SKY/WX    TMP DP  RH WIND       PRES   REMARKS
MARTINSBURG    CLOUDY    37  34  89 N7        29.83S FOG
PETERSBURG*    MIX PCPN  36  36 100 CALM      29.79F

$$

VAZ036>039-050-260600-
CENTRAL FOOTHILLS

CITY           SKY/WX    TMP DP  RH WIND       PRES   REMARKS
CHARLOTTESVILL CLOUDY    38  32  79 E3        29.79F
CULPEPER*      CLOUDY    37  36  93 CALM      29.82S
ORANGE*        CLOUDY    36  34  93 CALM      29.83S
GORDONSVILLE*  MOCLDY    32  31  96 CALM      29.80S
WARRENTON*     CLOUDY    40  37  90 CALM      29.81F

$$

VAZ055>057-260600-
NORTH AND CENTRAL PIEDMONT

CITY           SKY/WX    TMP DP  RH WIND       PRES   REMARKS
FREDERICKSBRG* CLOUDY    38  34  85 SE6       29.83S
STAFFORD*      CLOUDY    38  32  80 CALM      29.87S

$$

NCZ024-NYZ072-PAZ021-071-VAZ022-071-260600-
OTHER REGIONAL OBSERVATIONS

CITY           SKY/WX    TMP DP  RH WIND       PRES   REMARKS
NEW YORK CITY  CLOUDY    31  10  41 VRB6G16   30.01R
PHILADELPHIA   CLOUDY    34  25  69 NE13      29.96S WCI  25
PITTSBURGH     SNOW      29  28  96 N7        29.76F VSB 1/2
ROANOKE        CLOUDY    43  31  62 SE8       29.75F
RICHMOND       CLOUDY    42  35  76 SE9       29.84S
RALEIGH        MOCLDY    43  33  68 S5        29.81F

$$

ANZ530>537-260600-
MARINE OBSERVATIONS

STATION/POSITION TIME  TEMP    WIND        PRES
                       AIR SEA DIR/SP/G
                 (UTC) (F)     (DEG/KT/KT) (MB)
THOMAS PT LIGHT  0500   41 37  130/  7/  7 1012.2F
BALT KEY BRIDGE  0500   40      60/  9/ 11 1011.6F
COVE POINT       0500   39     180/ 14/ 15 1011.1F
LEWISETTA        0500   42 39  180/  8/  9 1010.7F
SOLOMONS ISLAND  0500      39                N/A
PINEY POINT      0500          140/  8/  9   N/A

$$




USA.gov is the U.S. government's official web portal to all federal, state and local government web resources and services.